Location: El Corozo
(10.5833°N, 66.9667°W)
Time: 21:21:33
(UTC+00:00)

Palapa 6 Rocket - Pass Details

Date: 23 May 2024
Orbit: 482 x 1186 km, 22.7° (Epoch: 25 June)

Event Time Altitude Azimuth Distance (km) Brightness Sun altitude
Rises 00:54:23 0° 256° (WSW) 3,723 7.6 -29.6°
Reaches altitude 10° 00:57:21 10° 259° (WSW) 2,662 6.8 -30.2°
Enters shadow 01:03:06 60° 309° (NW) 941 4.1 -31.4°
